Temperature
19 18 18 18 18 19 19 19 20 21 22 22 21 21 21 22 22 22 22 23 22 22 22 22 23 23 22 22 21 21 20 20 20 20 19 19 18 18 18 17 17 17 17 17
19 18 19 19 19 19 19 19 19 20 22 22 21 21 21 20 21 22 22 22 21 22 22 22 22 22 22 21 21 21 20 20 20 19 19 19 18 18 18 17 17 17 17 17
19 20 20 20 20 19 19 19 19 20 21 21 21 20 20 21 21 21 21 21 21 22 23 22 22 21 21 21 20 20 20 19 19 19 18 18 18 17 17 17 17 17 17 17
19 20 20 20 20 20 19 20 20 20 20 19 20 18 19 19 19 19 19 19 20 22 22 22 21 21 21 20 20 19 19 19 18 18 18 17 17 17 17 17 17 17 17 17
19 20 20 20 20 21 20 21 20 20 19 18 18 18 17 18 19 19 18 19 21 22 22 22 21 21 21 20 20 19 19 18 18 17 17 17 17 17 16 16 16 16 16 16
19 20 20 20 21 21 21 20 19 17 17 17 18 17 17 17 19 20 19 20 21 22 22 21 21 21 20 20 19 19 19 18 18 17 17 16 16 16 16 16 16 16 16 16
19 19 20 21 21 21 20 19 17 17 16 16 18 18 17 19 19 19 19 21 22 22 22 22 22 21 21 20 20 19 19 18 18 17 17 16 16 15 15 15 15 15 15 15
18 18 20 20 20 20 19 18 17 17 17 17 18 17 18 20 20 20 21 23 23 22 22 22 22 22 21 20 20 19 18 18 17 17 16 16 15 15 15 15 15 15 15 15
18 18 20 21 21 20 19 17 19 17 17 17 17 18 19 21 21 20 21 22 22 23 23 23 22 22 21 21 20 19 18 18 17 17 16 16 15 15 15 15 15 15 15 15
17 17 18 20 21 20 19 17 16 16 16 16 17 18 18 20 21 21 20 21 23 23 23 23 23 22 22 21 20 19 18 18 17 17 16 16 15 15 15 15 15 15 15 15
15 16 16 18 19 19 19 18 16 15 16 16 16 17 18 19 19 19 19 22 23 23 23 23 23 22 22 21 20 19 18 18 17 17 16 16 15 15 15 15 15 15 15 15
14 13 14 16 17 17 17 17 16 16 16 15 15 16 19 18 18 18 20 21 22 23 23 23 23 22 22 21 20 20 19 18 17 17 16 16 15 15 15 15 15 15 15 15
14 14 15 16 16 16 16 16 15 14 14 14 14 16 18 17 18 19 20 22 22 23 23 23 23 22 22 21 21 20 19 18 17 17 16 16 15 15 15 15 15 15 14 14
14 14 15 16 16 16 16 16 15 14 13 14 14 16 17 18 18 19 21 22 22 23 23 23 23 22 22 22 21 20 19 18 17 17 16 16 16 15 15 15 15 14 14 14
14 14 14 15 16 16 16 16 16 15 14 14 15 16 17 17 18 19 21 21 22 22 23 23 23 23 22 21 21 20 19 18 18 17 17 17 16 16 15 15 15 14 14 14
13 14 15 15 16 15 15 16 16 16 16 15 15 16 17 18 19 19 20 21 21 22 23 23 22 22 22 21 21 20 19 18 18 17 17 17 16 16 15 15 15 15 15 14
13 13 14 13 14 15 15 16 16 16 16 16 16 17 17 17 17 18 20 21 21 22 22 22 22 22 21 21 20 19 19 18 17 17 17 17 16 16 16 15 15 15 15 14
13 12 12 12 14 15 16 16 16 16 16 16 16 16 17 17 19 20 20 21 21 22 22 21 21 21 20 20 19 19 18 18 17 17 17 16 16 16 16 15 15 15 14 14
12 12 11 12 13 14 15 16 16 15 15 16 16 16 17 18 18 19 20 21 21 21 21 20 20 20 19 19 18 18 17 17 17 17 16 16 16 15 15 15 15 14 14 14
11 11 12 12 13 14 15 15 16 16 16 16 15 16 17 17 17 18 20 20 21 20 20 19 19 19 18 17 17 16 16 16 16 16 16 16 15 15 15 15 14 14 14 14
12 12 12 12 13 14 13 14 15 14 13 14 14 15 16 16 18 19 19 20 19 19 19 18 18 17 16 16 15 15 15 14 14 14 14 14 15 15 15 14 14 14 13 13
11 12 12 12 12 13 12 13 13 13 13 13 13 14 16 18 19 19 18 18 18 18 18 17 17 16 15 14 14 14 13 13 13 13 13 13 13 13 14 14 14 13 13 13
10 10 10 11 12 12 11 12 12 12 12 12 13 14 15 17 18 18 17 17 18 18 17 16 16 15 14 14 13 13 13 12 12 12 12 12 12 12 12 12 12 12 12 12
10 10 10 10 11 11 11 12 12 12 11 12 13 14 16 16 17 18 17 17 17 17 16 16 15 14 14 13 13 13 12 12 12 11 11 11 11 11 11 11 11 12 12 12
9 9 9 10 11 11 11 11 11 12 12 12 13 15 16 17 18 18 18 18 17 17 16 15 15 14 14 14 13 13 12 12 11 11 11 11 10 10 11 11 11 11 11 11
8 9 9 9 11 10 11 11 11 11 12 12 13 15 17 17 18 18 18 18 17 17 16 15 15 14 14 14 13 13 12 11 11 11 11 11 10 10 10 10 11 11 11 11
Wind_Speed
2 3 3 4 5 4 1 3 5 6 6 4 8 10 12 8 5 7 7 7 7 5 1 2 2 1 2 5 9 11 11 9 9 6 6 5 5 4 4 4 7 9 10 11
2 3 6 7 6 4 2 2 5 8 6 4 7 10 9 6 6 7 8 9 8 5 2 1 2 2 1 3 6 8 9 8 8 7 5 3 3 3 3 4 5 8 10 10
5 4 7 7 6 5 3 3 5 7 8 5 5 8 7 6 3 4 4 6 7 8 7 4 2 1 1 3 5 6 7 7 7 6 4 3 3 2 2 3 4 5 10 11
4 4 5 6 6 6 4 7 8 9 6 6 3 6 8 7 6 4 3 6 8 7 6 5 4 4 4 4 3 4 6 6 6 7 7 7 6 5 5 4 4 5 8 10
5 3 5 6 7 6 6 5 6 7 6 5 3 4 9 5 6 7 6 7 7 7 7 7 7 6 4 3 4 4 5 6 6 7 8 7 5 4 3 3 6 5 6 7
7 5 6 7 6 7 5 1 3 3 2 4 6 6 7 5 7 5 6 8 8 7 7 7 6 4 4 3 4 4 5 5 6 7 7 8 7 6 6 5 6 5 5 6
7 6 6 6 3 3 4 3 3 4 2 6 4 4 9 8 8 7 9 10 9 8 8 8 8 8 7 7 6 5 6 6 6 7 7 7 8 8 8 7 7 7 6 5
4 8 4 4 8 8 7 10 8 6 5 5 3 6 8 8 6 5 7 7 7 8 9 10 10 9 9 8 7 7 7 6 6 6 6 6 7 6 5 7 6 8 7 7
4 7 6 4 6 8 5 7 8 6 3 2 6 6 8 3 2 2 4 5 8 9 10 10 8 9 9 9 9 9 8 7 7 7 6 6 7 7 6 6 6 5 5 7
3 6 9 7 2 2 5 6 6 6 6 5 5 5 5 6 5 4 5 7 9 9 8 8 7 8 9 10 9 8 8 8 7 7 7 6 7 7 7 6 7 6 7 7
1 3 7 6 2 1 2 3 4 3 4 5 3 7 6 7 6 7 9 9 9 9 9 8 7 7 8 8 8 9 8 8 7 7 7 6 7 7 7 7 7 7 7 7
3 2 4 7 4 2 1 3 4 2 2 1 3 8 7 5 7 7 9 8 8 8 8 7 8 7 8 9 9 9 9 8 8 7 7 7 7 7 7 7 7 7 7 6
3 3 3 7 6 5 4 2 3 5 3 3 4 8 5 5 6 6 8 9 8 7 7 6 7 9 9 9 9 9 8 8 7 7 7 7 7 8 8 8 7 7 7 6
3 4 5 5 6 3 3 2 4 5 4 6 9 10 9 10 11 10 8 8 7 7 7 7 8 9 9 9 9 8 8 7 7 7 8 8 9 9 9 8 7 7 7 7
1 3 5 7 7 5 5 7 6 8 9 9 10 11 12 11 11 10 9 8 8 9 9 9 9 9 8 8 7 7 7 7 7 7 8 9 8 7 7 7 7 7 7 7
4 3 2 4 5 5 6 10 10 9 8 9 11 14 14 13 10 10 11 10 10 11 10 8 8 8 8 8 7 7 7 7 7 8 8 7 7 7 8 7 7 7 7 6
3 2 2 5 6 6 7 6 5 5 7 8 11 14 12 9 11 11 11 10 10 10 9 7 7 7 6 6 6 7 7 6 7 8 7 7 7 8 8 7 7 7 7 6
6 3 2 3 3 5 6 3 2 6 9 7 11 15 13 11 10 8 7 8 8 5 2 2 5 6 4 3 3 4 5 6 7 7 7 7 7 8 7 7 8 7 6 6
7 6 5 4 3 7 6 5 4 5 7 9 17 18 11 5 3 4 2 2 1 3 5 6 7 7 6 5 3 4 2 3 4 6 7 7 8 8 7 8 8 7 6 6
3 4 4 3 3 4 3 12 11 2 6 17 23 21 12 1 1 5 1 5 8 9 8 7 7 8 8 6 6 8 5 3 1 3 4 5 6 8 8 8 6 5 6 6
3 0 3 4 5 2 7 14 8 7 10 22 21 18 11 4 5 3 4 6 8 8 7 7 8 8 6 5 7 8 6 5 3 2 1 1 3 6 6 6 6 6 6 6
5 4 2 1 3 0 12 10 7 5 11 16 18 17 14 10 6 2 5 8 9 8 7 7 8 7 5 5 6 6 4 3 3 4 4 3 1 1 4 5 5 6 7 7
5 5 5 4 3 5 9 9 8 7 13 14 17 18 15 11 5 1 5 6 7 7 6 5 7 6 3 3 3 4 1 2 4 5 5 4 4 3 3 4 5 5 5 5
5 3 3 5 6 11 13 9 9 12 14 16 15 15 13 12 6 3 6 6 6 5 6 5 6 6 3 1 1 1 1 2 3 4 4 4 4 4 4 3 3 4 4 5
6 5 5 6 8 10 7 11 15 17 18 18 19 16 13 12 7 5 7 7 7 6 5 6 6 5 4 4 3 2 2 2 2 2 3 3 4 4 4 4 3 2 2 3
3 4 5 6 7 9 16 17 16 17 18 18 20 22 20 12 9 6 7 8 7 7 6 6 5 5 4 4 4 3 4 3 3 1 1 2 2 3 4 5 5 9 6 4
Wind_Direction
85 90 147 158 136 126 20 315 296 280 281 274 257 263 274 287 258 237 221 207 205 206 283 9 356 334 181 186 189 192 187 181 170 171 175 178 192 186 180 181 178 181 185 188
85 204 185 161 153 134 140 300 299 295 289 265 267 269 271 274 249 235 220 201 186 181 173 42 31 36 157 187 188 185 183 175 176 182 172 161 161 176 178 173 169 180 184 189
203 218 175 174 175 167 193 220 254 272 298 308 295 295 291 290 287 277 218 180 180 181 181 185 183 193 189 198 192 187 177 170 168 158 137 119 114 108 150 171 173 183 185 188
239 234 197 202 204 183 225 229 239 256 266 276 299 287 282 282 298 272 195 170 182 187 181 192 205 212 216 216 196 179 168 163 159 156 165 170 178 189 196 175 168 172 182 185
253 214 190 214 219 201 224 238 233 250 243 263 273 247 284 300 273 252 211 200 199 196 193 205 213 217 220 204 184 176 166 165 161 165 171 174 175 173 155 153 159 164 170 175
248 232 205 211 219 208 220 68 66 54 93 261 240 205 279 253 238 244 206 210 208 202 204 214 217 209 211 195 180 171 174 179 170 170 172 175 170 163 161 166 165 162 162 164
309 282 232 190 212 246 177 127 357 334 355 252 249 204 252 260 251 225 200 207 208 202 200 205 205 204 205 201 197 187 187 193 183 180 182 181 177 175 179 176 176 168 168 169
294 296 269 192 194 213 206 172 179 211 227 275 281 232 259 277 283 218 192 194 197 206 209 210 207 201 201 202 199 195 198 201 190 191 191 185 180 179 186 184 180 181 180 171
233 272 296 256 219 180 181 203 187 155 173 252 282 287 302 307 25 127 162 187 211 219 222 221 209 198 199 201 203 201 200 202 197 195 188 187 185 185 187 184 180 178 166 162
213 269 291 301 68 95 161 148 108 140 170 235 276 280 255 255 236 223 219 226 234 236 240 239 218 202 201 203 201 199 201 204 200 191 188 190 190 189 182 175 178 173 169 166
121 236 303 339 26 324 93 96 95 114 142 165 250 271 237 244 244 234 236 236 238 241 243 241 228 209 197 190 190 196 201 200 197 193 189 188 190 187 182 184 186 178 176 173
121 133 283 286 290 310 86 118 121 135 269 184 215 267 274 267 266 254 258 259 253 250 249 239 223 203 190 188 191 197 197 197 199 190 186 190 188 183 187 193 192 184 183 182
138 116 346 336 345 8 54 104 135 130 132 189 217 263 286 303 297 268 257 259 257 263 265 242 214 203 199 194 191 195 197 199 193 181 185 189 189 191 196 196 189 185 182 179
122 158 183 223 256 283 296 241 170 146 176 220 228 251 283 291 287 282 270 264 262 263 261 238 219 212 205 195 189 190 196 192 184 182 189 197 201 200 200 194 186 184 182 179
55 228 230 243 257 251 247 256 225 202 206 217 242 248 256 255 258 265 268 270 269 267 258 237 220 212 203 193 188 188 193 187 183 187 198 209 206 199 193 189 186 181 181 186
342 276 274 284 284 289 265 257 250 238 231 235 254 265 256 256 255 259 261 261 264 263 261 249 217 200 199 196 191 192 200 191 182 197 210 207 196 194 195 192 183 180 181 182
277 262 290 281 306 334 287 264 246 251 245 234 260 269 273 267 255 250 253 253 254 265 271 242 203 188 187 189 189 203 209 186 189 206 214 204 196 199 201 190 181 186 188 184
216 201 212 262 339 269 258 291 277 286 279 279 285 287 282 261 259 256 244 243 258 273 269 157 128 116 112 129 177 203 198 192 200 209 216 209 201 205 197 189 192 189 182 186
196 180 181 180 225 274 310 351 339 314 301 0 342 325 307 286 304 300 256 203 179 104 99 95 99 100 89 76 83 114 144 190 207 220 222 214 205 206 197 199 199 189 181 184
99 149 160 171 203 245 345 332 320 287 318 354 345 334 322 353 351 289 43 98 96 95 98 100 96 88 76 61 73 79 72 73 306 262 244 221 204 204 207 206 193 181 183 186
360 51 187 201 225 268 1 336 3 50 324 326 330 330 326 267 243 284 98 98 106 106 104 99 90 82 78 79 82 76 66 48 6 357 343 212 200 203 202 190 178 175 174 170
339 341 322 253 217 41 9 4 21 329 313 324 329 338 331 312 320 61 105 117 121 117 108 101 97 89 77 79 89 84 61 25 35 50 53 52 79 174 172 168 170 166 163 165
19 20 339 322 314 356 343 319 312 332 326 326 327 330 336 329 325 96 129 138 137 131 123 112 115 108 83 64 97 111 70 31 48 51 45 40 47 54 107 148 157 157 161 161
332 348 309 297 298 319 314 315 330 330 323 318 320 322 334 331 311 180 162 165 156 145 143 135 130 132 152 175 149 168 111 62 61 50 36 34 43 48 61 93 138 156 166 161
280 292 284 275 293 313 308 319 323 322 323 325 328 329 331 331 307 213 188 183 175 164 158 152 154 166 189 198 204 195 158 121 85 49 32 35 43 59 66 67 66 126 171 177
272 281 292 286 298 297 298 306 311 315 320 325 326 327 330 327 297 233 199 187 177 172 162 160 170 187 200 196 199 187 166 153 137 92 44 45 60 76 88 93 79 57 62 88
Height
1490 1495 1499 1498 1497 1500 1503 1505 1505 1499 1490 1491 1492 1489 1482 1477 1476 1475 1475 1475 1476 1478 1480 1481 1483 1484 1484 1485 1486 1487 1491 1494 1497 1500 1503 1505 1507 1510 1513 1516 1519 1522 1525 1527
1494 1496 1492 1493 1495 1497 1502 1506 1505 1498 1490 1491 1491 1488 1479 1475 1473 1472 1471 1472 1474 1477 1479 1481 1481 1482 1482 1482 1483 1484 1487 1490 1494 1497 1500 1503 1505 1508 1510 1512 1515 1517 1520 1523
1495 1492 1489 1491 1494 1497 1500 1503 1502 1501 1493 1490 1492 1490 1481 1473 1471 1469 1469 1470 1473 1476 1478 1480 1480 1481 1481 1481 1481 1483 1485 1488 1491 1494 1496 1499 1502 1504 1507 1509 1510 1513 1516 1519
1491 1488 1488 1490 1492 1493 1499 1493 1494 1496 1501 1503 1497 1508 1488 1477 1472 1469 1469 1470 1473 1476 1478 1479 1480 1480 1480 1480 1481 1482 1484 1486 1488 1490 1492 1495 1497 1499 1502 1504 1506 1509 1512 1514
1491 1486 1487 1490 1488 1488 1491 1486 1490 1493 1498 1503 1499 1506 1494 1479 1474 1468 1468 1470 1472 1475 1477 1478 1479 1480 1480 1480 1480 1481 1482 1484 1485 1487 1489 1491 1493 1496 1498 1501 1503 1505 1508 1510
1486 1482 1482 1482 1481 1483 1484 1488 1493 1499 1504 1513 1499 1505 1499 1481 1472 1466 1466 1468 1470 1473 1475 1477 1478 1479 1479 1480 1480 1481 1481 1482 1483 1485 1486 1488 1490 1492 1495 1497 1499 1502 1504 1506
1490 1482 1477 1476 1481 1482 1485 1497 1512 1513 1519 1515 1496 1499 1493 1469 1465 1463 1463 1466 1468 1471 1473 1475 1476 1477 1478 1479 1480 1480 1481 1481 1482 1483 1484 1485 1487 1489 1492 1494 1497 1498 1501 1503
1500 1495 1477 1474 1477 1482 1484 1491 1510 1518 1519 1511 1495 1498 1481 1464 1460 1459 1461 1464 1467 1469 1471 1472 1474 1475 1476 1477 1478 1479 1480 1480 1481 1482 1483 1484 1485 1487 1489 1492 1494 1496 1498 1500
1496 1493 1474 1471 1470 1474 1482 1487 1483 1500 1505 1509 1501 1489 1474 1462 1460 1460 1461 1463 1465 1466 1468 1470 1471 1473 1474 1475 1476 1477 1478 1479 1480 1481 1481 1482 1484 1485 1488 1490 1492 1494 1496 1497
1489 1494 1480 1471 1468 1470 1474 1479 1492 1500 1510 1514 1503 1494 1485 1467 1462 1461 1461 1462 1462 1464 1466 1467 1469 1470 1472 1473 1474 1475 1476 1477 1478 1479 1480 1481 1482 1484 1486 1488 1490 1492 1494 1495
1490 1496 1488 1479 1477 1478 1478 1481 1487 1495 1499 1510 1511 1497 1470 1465 1461 1461 1459 1459 1460 1461 1463 1464 1466 1468 1469 1470 1471 1472 1473 1474 1475 1476 1478 1479 1481 1482 1484 1486 1488 1490 1492 1494
1489 1497 1498 1487 1478 1476 1477 1481 1488 1498 1500 1503 1507 1496 1462 1461 1459 1459 1458 1457 1458 1459 1460 1461 1462 1464 1466 1467 1468 1469 1470 1471 1473 1474 1476 1477 1479 1480 1482 1484 1486 1488 1491 1492
1488 1496 1501 1494 1490 1482 1482 1483 1486 1492 1500 1505 1507 1491 1461 1459 1457 1455 1455 1454 1454 1455 1456 1456 1457 1459 1461 1463 1465 1466 1468 1469 1470 1472 1473 1475 1476 1478 1480 1482 1484 1486 1488 1490
1486 1493 1497 1500 1492 1486 1485 1483 1485 1491 1500 1499 1493 1480 1466 1460 1456 1453 1452 1451 1451 1451 1452 1452 1452 1453 1456 1459 1461 1463 1465 1467 1468 1469 1471 1472 1473 1475 1477 1479 1481 1483 1486 1487
1488 1492 1489 1486 1482 1482 1482 1480 1480 1485 1484 1487 1479 1472 1463 1456 1452 1449 1448 1447 1447 1446 1446 1446 1447 1448 1452 1455 1458 1460 1463 1464 1465 1467 1468 1470 1471 1473 1474 1476 1478 1480 1482 1485
1489 1490 1487 1485 1479 1480 1480 1475 1473 1474 1473 1474 1469 1462 1450 1447 1446 1445 1443 1442 1441 1441 1441 1442 1443 1445 1448 1452 1455 1458 1460 1461 1463 1464 1466 1468 1469 1470 1472 1473 1475 1477 1480 1482
1491 1491 1491 1493 1484 1482 1482 1469 1468 1468 1465 1466 1466 1454 1444 1443 1441 1439 1437 1437 1437 1437 1437 1438 1439 1442 1446 1450 1453 1455 1457 1459 1460 1461 1463 1464 1466 1467 1469 1471 1472 1475 1477 1479
1488 1490 1493 1493 1488 1490 1476 1465 1464 1465 1460 1459 1456 1447 1441 1438 1435 1434 1434 1434 1434 1435 1435 1436 1438 1441 1445 1448 1450 1452 1453 1454 1455 1457 1459 1460 1462 1464 1466 1467 1469 1471 1473 1475
1481 1486 1492 1494 1491 1485 1472 1466 1465 1465 1462 1456 1454 1444 1437 1434 1433 1431 1431 1432 1433 1434 1436 1437 1440 1442 1445 1447 1448 1449 1450 1451 1451 1452 1454 1455 1457 1459 1461 1463 1465 1467 1469 1471
1481 1483 1488 1490 1489 1486 1478 1467 1461 1462 1462 1457 1456 1449 1441 1437 1439 1435 1432 1432 1434 1436 1438 1440 1442 1444 1445 1447 1447 1448 1448 1448 1448 1449 1449 1450 1452 1454 1455 1458 1460 1462 1464 1467
1484 1484 1485 1486 1486 1479 1478 1470 1463 1477 1480 1466 1460 1452 1445 1441 1438 1435 1433 1434 1435 1438 1440 1442 1444 1445 1446 1447 1447 1448 1448 1447 1447 1447 1447 1447 1448 1449 1451 1453 1455 1457 1459 1462
1490 1488 1487 1486 1486 1485 1480 1475 1478 1481 1474 1468 1460 1452 1446 1441 1438 1435 1434 1435 1437 1440 1442 1444 1445 1446 1447 1448 1449 1449 1449 1448 1447 1446 1446 1445 1445 1446 1447 1449 1451 1453 1456 1459
1495 1497 1494 1492 1488 1483 1481 1481 1479 1477 1473 1466 1460 1453 1448 1443 1440 1437 1437 1438 1440 1442 1444 1445 1446 1447 1448 1449 1450 1450 1450 1449 1448 1447 1446 1445 1445 1445 1445 1447 1448 1450 1453 1456
1497 1494 1493 1489 1483 1481 1478 1476 1475 1473 1470 1464 1459 1453 1447 1444 1441 1439 1439 1440 1441 1443 1445 1446 1447 1448 1450 1451 1451 1451 1451 1450 1448 1447 1446 1446 1445 1445 1445 1446 1448 1449 1451 1454
1500 1496 1493 1489 1482 1478 1474 1473 1471 1467 1463 1458 1453 1449 1446 1443 1440 1439 1439 1440 1442 1444 1445 1446 1448 1449 1451 1451 1451 1451 1451 1450 1449 1448 1447 1446 1445 1445 1445 1446 1447 1449 1451 1453
1498 1496 1494 1489 1484 1481 1473 1470 1468 1465 1460 1456 1451 1445 1442 1442 1440 1439 1438 1440 1442 1444 1445 1447 1448 1450 1451 1451 1451 1451 1450 1450 1449 1448 1447 1446 1446 1446 1447 1447 1448 1450 1451 1453